Regional Weather Roundup
Issued by NWS Northern Indiana

Home | Current Version | Previous Version | Graphics & Text | Print | Product List | Glossary Off
Versions: 1 2 3 4 5 6 7 8 9 10 11 12 13 14 15 16 17 18 19 20 21 22 23 24 25 26 27 28 29 30 31 32 33 34 35 36 37 38 39 40 41 42 43 44 45 46 47 48 49 50

000
ASUS43 KIWX 041600
RWRIWX

KIWX WEATHER ROUNDUP
NATIONAL WEATHER SERVICE NORTHERN INDIANA
1100 AM EST WED MAR 04 2015

NOTE: "FAIR" INDICATES FEW OR NO CLOUDS BELOW 12,000 FEET WITH NO
SIGNIFICANT WEATHER AND/OR OBSTRUCTIONS TO VISIBILITY.

* THESE STATIONS ARE NOT UNDER NWS QUALITY CONTROL. THEY ALSO MAY NOT
  REPORT WEATHER SUCH AS PRECIPITATION OR FOG.

INZ001>027-041700-
NORTHERN INDIANA

CITY           SKY/WX    TMP DP  RH WIND       PRES   REMARKS
GARY*          CLOUDY    25  14  63 W12       30.10R WCI  14
SOUTH BEND     CLOUDY    27  18  69 NW14      30.03R WCI  16
ELKHART*       CLOUDY    28  16  59 NW9       30.02R WCI  20
GOSHEN         CLOUDY    28  20  71 NW14      30.00R WCI  17
MONTICELLO*    CLOUDY    22  17  83 NW13      30.06S WCI  10
ANGOLA*        CLOUDY    30  19  64 NW12      29.97R WCI  21
FORT WAYNE     CLOUDY    32  22  66 NW10      30.00R WCI  24

$$
INZ028>050-041700-
CENTRAL INDIANA

CITY           SKY/WX    TMP DP  RH WIND       PRES   REMARKS
LAFAYETTE      CLOUDY    21  15  78 NW14      30.08R WCI   8
KOKOMO*        CLOUDY    30  25  80 W14       30.03R WCI  20
MUNCIE*        CLOUDY    32  26  78 W10       30.01R HAZE    WCI  24
INDIANAPOLIS   CLOUDY    30  25  81 NW13      30.02R WCI  20

$$
MIZ043>046-050>051-056>058-064>065-071>073-077>080-041700-
SOUTHWEST LOWER MICHIGAN

CITY           SKY/WX    TMP DP  RH WIND       PRES   REMARKS
BATTLE CREEK   CLOUDY    27  17  66 NW17      29.98R WCI  14
BENTON HARBOR  CLOUDY    23  15  71 NW12G20   30.04R WCI  12
COLDWATER*     CLOUDY    29  20  68 NW8       29.97R WCI  21
HILLSDALE*     CLOUDY    31  21  65 NW12G17   29.94R WCI  22
HOLLAND        CLOUDY    23  14  68 NW9G22    30.03R WCI  13
GRAND RAPIDS   PTSUNNY   24  13  62 NW15      29.98R WCI  11
KALAMAZOO      CLOUDY    26  16  65 NW13      29.99R WCI  15
STURGIS*       PTSUNNY   28  19  69 W10       29.99R WCI  19
THREE RIVERS*  CLOUDY    28  18  66 NW10      30.01R WCI  18

$$
OHZ001>008-015>018-024>025-041700-
NORTHWEST OHIO

CITY           SKY/WX    TMP DP  RH WIND       PRES   REMARKS
DEFIANCE       CLOUDY    34  24  67 NW10      29.98S WCI  26
FINDLAY        CLOUDY    33  25  72 W6        29.96S WCI  28
TOLEDO EXPRESS CLOUDY    32  23  69 W12       29.96F WCI  23
TOLEDO METCALF CLOUDY    34  24  67 W9        29.97F WCI  27
LIMA           CLOUDY    33  25  72 NW7       29.95F WCI  27

$$
AND FOR LAKE MICHIGAN COASTAL AND OPEN LAKE BUOY OBSERVATIONS

STATION/POSITION TEMP    WIND        PRES    VSBY  WAVE
                 AIR SEA DIR/SP/G                  HT/PER
                 (F)     (DEG/KT/KT) (MB)    (MI)  (FT/S)
CALUMET HARBOR    22     270/  7/ 12 1017.4R
MICHIGAN CITY     23     300/ 14/ 17   N/A
SAINT JOSEPH      24     310/ 12/ 15 1017.9R

$$
&&



USA.gov is the U.S. government's official web portal to all federal, state and local government web resources and services.